Home > Weather > Porto Novo > Past weeks

Flag for Benin Past Weather in Porto Novo, Benin — Yesterday and Last 2 Weeks

Now
82 °F

Scattered clouds.


Feels Like: 89 °F
Forecast: 74 / 85 °F
Wind: 12 mph from Southwest

Location: Cotonou Airport

Current Time: Jul 29, 2016 at 1:16:37 PM

Latest Report: Jul 29, 2016 at 12:00 PM


Visibility: N/A

Pressure: 29.95 "Hg

Humidity: 79%

Dew Point: 75 °F

Location of Porto NovoLocation

Past Weather in Porto Novo — Graph

°F

Porto Novo Temperature Yesterday

Maximum temperature yesterday: 84 °F (at 1:00 PM)
Minimum temperature yesterday: 75 °F (at 3:00 AM)
Average temperature yesterday: 79 °F

High & Low Weather Summary for the Past Weeks

 TemperatureHumidityPressure
High84 °F (Jul 15, 3:00 PM)100% (Jul 23, 4:00 PM)29.98 "Hg (Jul 23, 4:00 PM)
Low75 °F (Jul 18, 1:00 AM)70% (Jul 18, 3:00 PM)29.80 "Hg (Jul 15, 5:00 PM)
Average78 °F88%29.89 "Hg
* Reported Jul 14 12:00 PM — Jul 29 12:00 PM, Porto Novo, Weather by CustomWeather, © 2016

Note: Actual official high and low records may vary slightly from our data, if they occured in-between our weather recording intervals... More about our weather records

Advertising

Porto Novo Weather History for the Previous 24 Hours

Scroll right to see more
 ConditionsComfort  
Time TempWeatherWind HumidityBarometerVisibility
12:00 PM
Fri, Jul 29
82 °FScattered clouds.12 mph79%29.95 "HgN/A
11:00 AM82 °FScattered clouds.9 mph74%29.95 "HgN/A
10:00 AM79 °FScattered clouds.12 mph84%29.95 "HgN/A
9:00 AM79 °FScattered clouds.9 mph84%29.92 "HgN/A
8:00 AM77 °FScattered clouds.6 mph89%29.92 "Hg5 mi
7:00 AM77 °FScattered clouds.5 mph89%29.92 "HgN/A
6:00 AM77 °FPassing clouds.6 mph89%29.92 "HgN/A
5:00 AM77 °FPassing clouds.6 mph89%29.89 "HgN/A
4:00 AM77 °FPassing clouds.6 mph89%29.89 "HgN/A
3:00 AM77 °FPassing clouds.6 mph89%29.89 "HgN/A
2:00 AM77 °FPassing clouds.6 mph94%29.89 "HgN/A
1:00 AM77 °FPassing clouds.7 mph94%29.92 "HgN/A
12:00 AM77 °FPassing clouds.9 mph94%29.92 "HgN/A
11:00 PM
Thu, Jul 28
77 °FPassing clouds.9 mph94%29.92 "HgN/A
10:00 PM77 °FPassing clouds.9 mph94%29.92 "HgN/A
9:00 PM77 °FPassing clouds.9 mph94%29.89 "HgN/A
8:00 PM77 °FPassing clouds.9 mph94%29.89 "HgN/A
7:00 PM79 °FPassing clouds.13 mph89%29.86 "HgN/A
6:00 PM81 °FScattered clouds.13 mph84%29.86 "HgN/A
5:00 PM81 °FScattered clouds.14 mph84%29.86 "HgN/A
4:00 PM81 °FScattered clouds.14 mph84%29.86 "HgN/A
3:00 PM82 °FScattered clouds.14 mph79%29.89 "HgN/A
2:00 PM82 °FScattered clouds.15 mph79%29.89 "HgN/A
1:00 PM84 °FPassing clouds.14 mph74%29.92 "HgN/A
Weather by CustomWeather, © 2016

See weather overviewHow to use our weather pages